Miscellaneous Local Product
Issued by NWS North Platte, NE

Home | Current Version | Previous Version | Graphics & Text | Print | Product List | Glossary On
Versions: 1 2 3 4 5 6 7 8 9 10 11 12 13 14 15 16 17 18 19 20 21 22 23 24 25 26 27 28 29 30 31 32 33 34 35 36 37 38 39 40 41 42 43 44 45 46 47 48 49 50
000
AXUS43 KLBF 291210
MISLBF


WESTERN AND NORTH CENTRAL NEBRASKA HOURLY WEATHER ROUNDUP
NATIONAL WEATHER SERVICE NORTH PLATTE NE
700 AM CDT MON SEP 29 2014

***STATIONS NOT REPORTING VARIABLES SUCH AS SKY/WEATHER OR
PRESSURE ARE PROVIDED BY THE NEBRASKA DEPARTMENT OF
ROADS...RAWS...AND APRS NETWORKS...AND ARE NOT UNDER
NATIONAL WEATHER SERVICE QUALITY CONTROL***

...OBSERVATIONS IN AND NEAR THE EASTERN PANHANDLE OF NEBRASKA...

CITY           SKY/WX    TMP DP  RH WIND       PRES   REMARKS
PINE RIDGE     CLOUDY    51  51 100 E16G22    30.05R FOG
CHADRON        CLOUDY    53  53 100 NE10      30.05R
ALLIANCE       CLOUDY    55  53  93 E10       30.02R
SIDNEY         CLOUDY    58  53  84 CALM      30.02R
WHITECLAY        N/A     51  49  93 E3          N/A
RUSHVILLE        N/A     51  50  97 E14         N/A
CRESCENT LAKE    N/A     57  53  87 SE5G12      N/A
LISCO            N/A     62  54  74 CALM        N/A
BIG SPRINGS      N/A     60  54  82 SE7         N/A
$$

...OBSERVATIONS IN NORTH CENTRAL NEBRASKA...

CITY           SKY/WX    TMP DP  RH WIND       PRES   REMARKS
VALENTINE      FOG       53  52  96 NE12      30.07F VSB 1/4
THEDFORD       PTCLDY    52  52  98 CALM      30.06F FOG
AINSWORTH      DRZL/FOG  54  54 100 NE6       30.07F VSB 1/4
O`NEILL        CLEAR     57  56  99 NE6       30.07S
ORD            CLEAR     52  51  97 CALM      30.04S
BROKEN BOW     CLEAR     51  49  92 CALM      30.05S
SPRINGVIEW       N/A     55  53  94 NE3         N/A
ROSE             N/A     56  56  99 N6          N/A
NEWPORT          N/A     56  56  99 NE8         N/A
SARGENT          N/A     53  51  95 CALM        N/A
COMSTOCK         N/A     61  58  88 S3          N/A
CHAMBERS         N/A     56  54  93 CALM        N/A
EWING            N/A     59  57  94 CALM        N/A
$$

...OBSERVATIONS IN SOUTHWEST NEBRASKA AND FAR NORTHEAST COLORADO...

CITY           SKY/WX    TMP DP  RH WIND       PRES   REMARKS
WRAY           PTSUNNY   61  53  75 SE6       30.00R
IMPERIAL       PTCLDY    61  53  75 SE10      30.00F
OGALLALA       CLOUDY    62  55  79 E5        30.01S
NORTH PLATTE   CLEAR     57  52  83 E9        30.02F
MCCOOK         CLEAR     59  53  80 SE5       30.03S
LEXINGTON      CLEAR     54  52  93 E5        30.05F
PAXTON           N/A     60  54  82 SE8         N/A
SUTHERLAND       N/A     54  51  87 SE8         N/A
BRADY            N/A     57  51  81 CALM        N/A
GOTHENBURG       N/A     58  50  76 CALM        N/A
CALLAWAY         N/A     54  52  92 S3          N/A
$$

...SOME WEATHER OBSERVATIONS FROM AROUND THE REGION...

CITY           SKY/WX    TMP DP  RH WIND       PRES   REMARKS
DENVER         CLOUDY    52  49  89 N6        30.05S
LARAMIE        CLOUDY    46  44  93 E6        30.10F
CHEYENNE       RAIN      49  46  90 CALM      30.09R
SCOTTSBLUFF    TSTM      54  54 100 NW7       30.03R FOG
RAPID CITY     LGT RAIN  49  48  97 E8        30.09F FOG
PIERRE         CLOUDY    52  48  86 NE15      30.10F
WINNER         CLOUDY    54  52  93 NE10      30.09S FOG
SIOUX FALLS    CLOUDY    57  55  93 NE9       30.08S
OMAHA          PTCLDY    63  56  78 SE5       30.06S
GRAND ISLAND   CLEAR     59  54  83 S5        30.06S
KANSAS CITY    MOCLDY    62  58  86 CALM      30.07S FOG
WICHITA        CLEAR     62  57  83 SE3       30.07R
HAYS           CLEAR     59  50  72 E8        30.06R
LIBERAL        CLEAR     55  48  76 S8        30.08S
GOODLAND       PTCLDY    58  53  84 S18       30.01F
$$



USA.gov is the U.S. government's official web portal to all federal, state and local government web resources and services.